This is the latest recevied weather packets stored in our database for station/object N7BTW-13. If no packets are shown the sender has not sent any weather packets the latest 10 day(s).
| Time | Temp. | Humidity | Pressure | Rain* | Wind** | Luminosity | Snow |
|---|---|---|---|---|---|---|---|
| 1787802606 | 22.78° C | 61% | - | 0 mm | - | - | - |
| 1787802008 | 22.78° C | 60% | - | 0 mm | - | - | - |
| 1787801407 | 23.33° C | 60% | - | 0 mm | - | - | - |
| 1787800811 | 23.89° C | 59% | - | 0 mm | - | - | - |
| 1787800205 | 24.44° C | 58% | - | 0 mm | - | - | - |
| 1787799608 | 25° C | 56% | - | 0 mm | - | - | - |
| 1787799007 | 25.56° C | 53% | - | 0 mm | - | - | - |
| 1787798410 | 26.11° C | 52% | - | 0 mm | - | - | - |
| 1787797809 | 26.11° C | 52% | - | 0 mm | - | - | - |
| 1787797212 | 26.11° C | 51% | - | 0 mm | - | - | - |
| 1787796608 | 28.33° C | 48% | - | 0 mm | - | - | - |
| 1787796006 | 27.22° C | 49% | - | 0 mm | - | - | - |
| 1787795407 | 27.78° C | 49% | - | 0 mm | - | - | - |
| 1787794807 | 27.78° C | 48% | - | 0 mm | - | - | - |
| 1787794210 | 28.89° C | 46% | - | 0 mm | - | - | - |
| 1787793608 | 28.89° C | 45% | - | 0 mm | - | - | - |
| 1787793006 | 28.89° C | 46% | - | 0 mm | - | - | - |
| 1787792407 | 27.78° C | 48% | - | 0 mm | - | - | - |
| 1787791811 | 28.89° C | 46% | - | 0 mm | - | - | - |
| 1787791211 | 28.89° C | 45% | - | 0 mm | - | - | - |
| 1787790607 | 28.33° C | 47% | - | 0 mm | - | - | - |
| 1787790008 | 28.33° C | 46% | - | 0 mm | - | - | - |
| 1787789407 | 29.44° C | 45% | - | 0 mm | - | - | - |
| 1787788807 | 28.89° C | 46% | - | 0 mm | - | - | - |
| 1787788209 | 28.33° C | 46% | - | 0 mm | - | - | - |
* Rain latest hour (hover to see other rain measurements)
** Current wind speed in m/s (hover to see current wind gust speed)